MOLNIYA 1-63

Last updated on Mon Jun 26 2023 00:03:02 GMT+0000 (Coordinated Universal Time)

1 15429U 84124A 23176.31933687 -.00000469 00000+0 00000+0 0 9997 2 15429 63.6061 130.4697 6820050 257.2803 345.7215 2.00363770282280
UTC large
Height (km)
Speed (km/s)
/
Latitude / Longitude
Inclination (degrees)
Orbital Period (minutes)
Azimuth
Elevation
Range (km)
Doppler Factor

Next 0 passes for location: London (51.5072 / 0.1276)

Sorry there are no passes over London.
MOLNIYA 1-63